Weather in Pokhvalshchina

Russia / Pskov Oblast     57°42′51″N   28°27′30″E
temp.,
°C
wind,
m/s
gust,
m/s
humid.,
%
clouds,
%
prec.,
mm/h
press.,
hPa
HPBL,
m
14 may, fri
fri1400:00+9ese399732 0.1 1010298
03:00+7se289820 0.1 1010219
06:00+7ese27955 0.0 1010220
09:00+11ese4107678 0.0 1010576
12:00+12se41079100 0.0 1010644
15:00+16se5866100 0.1 10091264
18:00+16se597684 1.0 10081081
21:00+12ese289343 1.7 1008187
15 may, sat
sat1500:00+10ese2694100 0.0 1008115
03:00+10e249537 0.1 100762
06:00+10ese249626 0.1 100793
09:00+15se238082 0.1 1007393
12:00+20sse125899 0.0 10061185
15:00+22ese124934 0.5 10051821
18:00+19wnw237179 0.8 1004145
21:00+14nw239295 4.4 100556
16 may, sun
sun1600:00+12nw269868 2.1 1005129
03:00+12nw269891 3.1 1006150
06:00+11wnw269871 0.8 1007189
09:00+13wnw349179 1.3 1008357
12:00+17wnw337048 0.0 1008697
15:00+20wnw335918 0.1 10081055
18:00+19nw236613 0.3 1008718
21:00+14nw118815 0.7 100911
17 may, mon
mon1700:00+12sse11935 0.0 100910
03:00+11se22960 0.0 101025
06:00+11ese249444 0.0 101091
09:00+17se367421 0.0 1010423
12:00+22se475096 0.0 10091687
15:00+23se5745100 0.0 10072177
18:00+21se4862100 0.5 10061033
21:00+13w3797100 3.0 1006192
18 may, tue
tue1800:00+13nw2699100 5.3 1004307
03:00+13wnw2599100 11.9 1002265
06:00+13sw2599100 0.4 1003347
09:00+14w3589100 0.4 1005598
12:00+15wsw3474100 0.1 1006989
15:00+16wnw236542 0.1 10071049
18:00+18n125846 0.0 1007885
21:00+13e228174 0.0 100817